Hourly Weather Runo

Today, 20 April, Tuesday

Time Temperature Precipitation Wind Pressure Humidity
00:00 +5°C° 0 mm 3 mps 747 mmHg 69%
01:00 +4°C° 0 mm 3 mps 747 mmHg 72%
02:00 +4°C° 0 mm 3 mps 746 mmHg 76%
03:00 +4°C° 0 mm 3 mps 746 mmHg 80%
04:00 +3°C° 0 mm 3 mps 746 mmHg 84%
05:00 +3°C° 0 mm 3 mps 746 mmHg 88%
06:00 +3°C° 0 mm 3 mps 746 mmHg 81%
07:00 +4°C° 0 mm 4 mps 746 mmHg 75%
08:00 +4°C° 0 mm 4 mps 746 mmHg 68%
09:00 +5°C° 0 mm 4 mps 745 mmHg 65%
10:00 +6°C° 0 mm 4 mps 745 mmHg 61%
11:00 +6°C° 0 mm 4 mps 744 mmHg 57%
12:00 +7°C° 0 mm 4 mps 744 mmHg 58%
13:00 +7°C° 0 mm 4 mps 744 mmHg 60%
14:00 +7°C° 0 mm 4 mps 744 mmHg 61%
15:00 +8°C° 0 mm 3 mps 743 mmHg 63%
16:00 +8°C° 0 mm 3 mps 743 mmHg 64%
17:00 +8°C° 0 mm 3 mps 742 mmHg 65%
18:00 +7°C° 0 mm 3 mps 742 mmHg 68%
19:00 +5°C° 0 mm 3 mps 742 mmHg 72%
20:00 +5°C° 0 mm 3 mps 741 mmHg 75%
21:00 +4°C° 0 mm 3 mps 741 mmHg 79%
22:00 +3°C° 0 mm 3 mps 740 mmHg 84%
23:00 +3°C° 0 mm 2 mps 740 mmHg 88%

Tomorrow, 21 April, Wednesday

Time Temperature Precipitation Wind Pressure Humidity
00:00 +3°C° 0 mm 2 mps 739 mmHg 89%
01:00 +3°C° 0 mm 2 mps 739 mmHg 90%
02:00 +3°C° 0 mm 2 mps 738 mmHg 91%
03:00 +3°C° 0.1 mm 2 mps 737 mmHg 93%
04:00 +3°C° 0.1 mm 2 mps 737 mmHg 94%
05:00 +3°C° 0.1 mm 2 mps 736 mmHg 96%
06:00 +3°C° 0.2 mm 2 mps 735 mmHg 96%
07:00 +3°C° 0.2 mm 2 mps 735 mmHg 97%
08:00 +3°C° 0.2 mm 2 mps 734 mmHg 97%
09:00 +3°C° 0.3 mm 2 mps 734 mmHg 98%
10:00 +3°C° 0.3 mm 2 mps 734 mmHg 98%
11:00 +3°C° 0.3 mm 2 mps 733 mmHg 98%
12:00 +3°C° 0.3 mm 2 mps 733 mmHg 98%
13:00 +3°C° 0.3 mm 2 mps 733 mmHg 97%
14:00 +3°C° 0.3 mm 2 mps 734 mmHg 97%
15:00 +3°C° 0.1 mm 2 mps 734 mmHg 96%
16:00 +3°C° 0.1 mm 2 mps 734 mmHg 94%
17:00 +4°C° 0.1 mm 2 mps 734 mmHg 92%
18:00 +3°C° 0 mm 2 mps 734 mmHg 93%
19:00 +4°C° 0 mm 1 mps 734 mmHg 94%
20:00 +4°C° 0 mm 1 mps 735 mmHg 94%
21:00 +4°C° 0 mm 1 mps 735 mmHg 94%
22:00 +2°C° 0 mm 2 mps 735 mmHg 94%
23:00 +2°C° 0 mm 2 mps 735 mmHg 94%

Day after tomorrow, 22 April, Thursday

Time Temperature Precipitation Wind Pressure Humidity
00:00 +2°C° 0 mm 2 mps 735 mmHg 94%
01:00 +2°C° 0 mm 2 mps 735 mmHg 94%
02:00 +2°C° 0 mm 2 mps 735 mmHg 94%
03:00 +2°C° 0 mm 2 mps 736 mmHg 93%
04:00 +2°C° 0 mm 2 mps 736 mmHg 92%
05:00 +2°C° 0 mm 2 mps 736 mmHg 92%
06:00 +4°C° 0 mm 2 mps 736 mmHg 87%
07:00 +4°C° 0 mm 3 mps 736 mmHg 83%
08:00 +7°C° 0 mm 3 mps 737 mmHg 78%
09:00 +7°C° 0.2 mm 4 mps 737 mmHg 72%
10:00 +10°C° 0.2 mm 4 mps 737 mmHg 66%
11:00 +12°C° 0.2 mm 4 mps 737 mmHg 60%
12:00 +12°C° 0.4 mm 4 mps 737 mmHg 60%
13:00 +12°C° 0.4 mm 4 mps 737 mmHg 59%
14:00 +12°C° 0.4 mm 4 mps 737 mmHg 58%
15:00 +12°C° 0.2 mm 4 mps 737 mmHg 60%
16:00 +12°C° 0.2 mm 4 mps 737 mmHg 63%
17:00 +12°C° 0.2 mm 4 mps 737 mmHg 65%
18:00 +10°C° 0 mm 3 mps 737 mmHg 72%
19:00 +9°C° 0 mm 3 mps 737 mmHg 79%
20:00 +7°C° 0 mm 3 mps 737 mmHg 86%
21:00 +7°C° 0.1 mm 3 mps 737 mmHg 89%
22:00 +6°C° 0.1 mm 2 mps 737 mmHg 92%
23:00 +6°C° 0.1 mm 2 mps 737 mmHg 96%

23 April, Friday

Time Temperature Precipitation Wind Pressure Humidity
00:00 +7°C° 0 mm 1 mps 737 mmHg 95%
01:00 +6°C° 0 mm 1 mps 737 mmHg 95%
02:00 +5°C° 0 mm 0 mps 737 mmHg 95%
03:00 +6°C° 0.5 mm 1 mps 736 mmHg 95%
04:00 +6°C° 0.5 mm 1 mps 736 mmHg 96%
05:00 +6°C° 0.5 mm 1 mps 736 mmHg 96%
06:00 +4°C° 1 mm 2 mps 736 mmHg 96%
07:00 +3°C° 1 mm 2 mps 736 mmHg 96%
08:00 +3°C° 1 mm 2 mps 736 mmHg 96%
09:00 +3°C° 0.1 mm 2 mps 737 mmHg 94%
10:00 +4°C° 0.1 mm 2 mps 737 mmHg 92%
11:00 +4°C° 0.1 mm 2 mps 738 mmHg 90%
12:00 +5°C° 0 mm 2 mps 738 mmHg 85%
13:00 +6°C° 0 mm 2 mps 738 mmHg 80%
14:00 +6°C° 0 mm 2 mps 738 mmHg 75%
15:00 +7°C° 0.2 mm 2 mps 738 mmHg 75%
16:00 +7°C° 0.2 mm 2 mps 738 mmHg 75%
17:00 +7°C° 0.2 mm 2 mps 738 mmHg 75%
18:00 +5°C° 0.1 mm 2 mps 738 mmHg 79%
19:00 +5°C° 0.1 mm 1 mps 738 mmHg 83%
20:00 +4°C° 0.1 mm 1 mps 738 mmHg 87%
21:00 +4°C° 0 mm 1 mps 738 mmHg 87%
22:00 +4°C° 0 mm 1 mps 738 mmHg 87%
23:00 +4°C° 0 mm 1 mps 738 mmHg 87%

24 April, Saturday

Time Temperature Precipitation Wind Pressure Humidity
00:00 +3°C° 0 mm 1 mps 737 mmHg 88%
01:00 +3°C° 0 mm 1 mps 737 mmHg 89%
02:00 +2°C° 0 mm 1 mps 737 mmHg 90%
03:00 +2°C° 0 mm 1 mps 737 mmHg 90%
04:00 +1°C° 0 mm 1 mps 737 mmHg 90%
05:00 +1°C° 0 mm 1 mps 737 mmHg 90%
06:00 +3°C° 0 mm 1 mps 737 mmHg 84%
07:00 +3°C° 0 mm 2 mps 737 mmHg 78%
08:00 +4°C° 0 mm 2 mps 737 mmHg 72%
09:00 +4°C° 0.2 mm 3 mps 737 mmHg 66%
10:00 +5°C° 0.2 mm 3 mps 737 mmHg 60%
11:00 +7°C° 0.2 mm 3 mps 736 mmHg 53%
12:00 +7°C° 0.2 mm 3 mps 737 mmHg 52%
13:00 +7°C° 0.2 mm 3 mps 737 mmHg 50%
14:00 +6°C° 0.2 mm 4 mps 737 mmHg 49%
15:00 +7°C° 0.1 mm 3 mps 737 mmHg 49%
16:00 +7°C° 0.1 mm 3 mps 737 mmHg 50%
17:00 +5°C° 0.1 mm 3 mps 737 mmHg 50%
18:00 +5°C° 0 mm 2 mps 737 mmHg 58%
19:00 +3°C° 0 mm 2 mps 737 mmHg 66%
20:00 +3°C° 0 mm 1 mps 737 mmHg 73%
21:00 +2°C° 0 mm 1 mps 737 mmHg 77%
22:00 +2°C° 0 mm 1 mps 737 mmHg 81%
23:00 +1°C° 0 mm 1 mps 737 mmHg 85%

25 April, Sunday

Time Temperature Precipitation Wind Pressure Humidity
00:00 +1°C° 0 mm 1 mps 737 mmHg 87%
01:00 0°C° 0 mm 1 mps 737 mmHg 88%
02:00 0°C° 0 mm 1 mps 737 mmHg 90%
03:00 0°C° 0 mm 1 mps 737 mmHg 90%
04:00 0°C° 0 mm 1 mps 737 mmHg 90%
05:00 0°C° 0 mm 1 mps 737 mmHg 90%
06:00 +2°C° 0 mm 1 mps 737 mmHg 83%
07:00 +3°C° 0 mm 1 mps 737 mmHg 76%
08:00 +4°C° 0 mm 2 mps 737 mmHg 69%
09:00 +5°C° 0.2 mm 2 mps 737 mmHg 64%
10:00 +5°C° 0.2 mm 2 mps 737 mmHg 59%
11:00 +6°C° 0.2 mm 2 mps 737 mmHg 54%
12:00 +6°C° 0.3 mm 2 mps 737 mmHg 54%
13:00 +7°C° 0.3 mm 2 mps 737 mmHg 54%
14:00 +7°C° 0.3 mm 3 mps 737 mmHg 54%
15:00 +5°C° 0.2 mm 3 mps 738 mmHg 57%
16:00 +5°C° 0.2 mm 3 mps 738 mmHg 59%
17:00 +6°C° 0.2 mm 2 mps 738 mmHg 62%
18:00 +4°C° 0 mm 2 mps 738 mmHg 70%
19:00 +2°C° 0 mm 2 mps 738 mmHg 77%
20:00 +1°C° 0 mm 2 mps 739 mmHg 84%
21:00 -1°C° 0 mm 2 mps 739 mmHg 85%
22:00 +1°C° 0 mm 1 mps 739 mmHg 86%
23:00 0°C° 0 mm 1 mps 739 mmHg 87%
Show more